Terminal Aerodrome Forecast
Issued by NWS

Home | Current Version | Previous Version | Text Only | Print | Product List | Glossary On
Versions: 1 2 3 4 5 6 7 8 9 10 11 12 13 14 15 16 17 18 19 20 21 22 23 24 25 26 27 28 29
000
FTUS44 KLIX 060551
TAFHUM
TAF
KHUM 060551Z 0606/0706 09005KT P6SM FEW250
      TEMPO 0609/0612 4SM BR
     FM061500 13011KT P6SM BKN035
     FM070000 12008KT P6SM SCT080=

USA.gov is the U.S. government's official web portal to all federal, state and local government web resources and services.